TimeMST,TemperatureF,Dew PointF,Humidity,Sea Level PressureIn,VisibilityMPH,Wind Direction,Wind SpeedMPH,Gust SpeedMPH,PrecipitationIn,Events,Conditions,WindDirDegrees,DateUTC
12:48 AM,19.9,16.0,85,29.89,-9999.0,WNW,9.2,-,0.01,,Unknown,300,2012-12-19 07:48:00
1:48 AM,19.9,17.1,89,29.90,-9999.0,WNW,6.9,-,N/A,,Unknown,290,2012-12-19 08:48:00
2:48 AM,21.0,17.1,85,29.91,-9999.0,WNW,8.1,-,N/A,,Unknown,300,2012-12-19 09:48:00
3:48 AM,19.0,15.1,85,29.94,-9999.0,WNW,5.8,-,N/A,,Unknown,300,2012-12-19 10:48:00
4:48 AM,19.0,15.1,85,29.96,-9999.0,West,4.6,-,N/A,,Unknown,270,2012-12-19 11:48:00
5:48 AM,15.1,10.9,84,29.99,-9999.0,West,3.5,-,N/A,,Unknown,280,2012-12-19 12:48:00
6:48 AM,8.1,5.0,87,30.04,-9999.0,WNW,4.6,-,N/A,,Unknown,290,2012-12-19 13:48:00
7:48 AM,10.9,8.1,88,30.06,-9999.0,WNW,3.5,-,N/A,,Unknown,290,2012-12-19 14:48:00
8:48 AM,9.0,6.1,88,30.08,-9999.0,Calm,Calm,-,N/A,,Unknown,0,2012-12-19 15:48:00
9:48 AM,15.1,10.9,84,30.09,-9999.0,Calm,Calm,-,N/A,,Unknown,0,2012-12-19 16:48:00
10:48 AM,21.9,15.1,75,30.10,-9999.0,West,5.8,-,N/A,,Unknown,260,2012-12-19 17:48:00
11:48 AM,28.0,12.9,53,30.08,-9999.0,WNW,12.7,-,N/A,,Unknown,290,2012-12-19 18:48:00
12:48 PM,30.0,12.9,49,30.06,-9999.0,West,11.5,-,N/A,,Unknown,270,2012-12-19 19:48:00
1:48 PM,30.0,12.0,47,30.07,-9999.0,WNW,10.4,-,N/A,,Unknown,290,2012-12-19 20:48:00
2:48 PM,30.0,12.9,49,30.06,-9999.0,WNW,10.4,-,N/A,,Unknown,300,2012-12-19 21:48:00
3:48 PM,28.0,12.0,51,30.09,-9999.0,WNW,3.5,-,N/A,,Unknown,300,2012-12-19 22:48:00
4:48 PM,15.1,9.0,77,30.12,-9999.0,Calm,Calm,-,N/A,,Unknown,0,2012-12-19 23:48:00
5:48 PM,12.0,6.1,77,30.14,-9999.0,Calm,Calm,-,N/A,,Unknown,0,2012-12-20 00:48:00
6:48 PM,9.0,3.9,80,30.17,-9999.0,Calm,Calm,-,N/A,,Unknown,0,2012-12-20 01:48:00
7:48 PM,6.1,3.0,87,30.17,-9999.0,Calm,Calm,-,N/A,,Unknown,0,2012-12-20 02:48:00
8:48 PM,3.9,-0.0,84,30.17,-9999.0,Calm,Calm,-,N/A,,Unknown,0,2012-12-20 03:48:00
9:48 PM,1.9,-2.0,83,30.17,-9999.0,Calm,Calm,-,N/A,,Unknown,0,2012-12-20 04:48:00
10:48 PM,1.0,-2.9,83,30.17,-9999.0,Calm,Calm,-,N/A,,Unknown,0,2012-12-20 05:48:00
11:48 PM,1.9,-0.9,88,30.15,-9999.0,Calm,Calm,-,N/A,,Unknown,0,2012-12-20 06:48:00